Wind_Speed
26 28 26 25 24 22 21 19 18 17 17 17 17 17 16 15 14 14 14 12 12 12 12 12 11 9 8 7 6 6 6 7 9 9 9 9 9 9 10 11 11 11 11
31 31 27 25 23 22 20 19 18 16 15 15 15 15 14 14 14 14 13 13 12 12 11 11 10 9 8 7 7 6 6 8 8 9 9 9 9 9 10 10 11 10 11
33 32 28 26 24 22 20 19 17 16 15 14 14 14 14 14 14 13 12 11 11 11 11 10 9 8 8 7 7 7 7 9 8 7 7 7 8 8 9 10 10 10 10
33 32 29 27 24 22 20 19 17 15 14 14 14 13 13 12 12 12 11 11 10 10 10 9 8 8 7 7 7 7 8 9 6 5 6 5 4 6 7 8 9 9 10
30 29 28 26 23 21 20 18 17 16 15 14 14 13 12 12 11 11 10 10 10 9 9 9 8 8 7 7 7 7 7 9 6 6 6 3 3 5 6 6 7 7 7
27 30 28 25 23 21 20 19 17 16 15 14 13 13 12 12 11 11 10 9 8 9 8 9 8 7 7 6 6 6 7 8 7 8 6 2 2 3 4 5 5 5 5
21 28 28 25 23 22 21 19 18 16 15 14 13 13 11 11 10 11 10 10 11 9 8 8 9 7 6 5 5 6 6 8 9 10 6 4 2 3 4 4 3 3 3
17 25 27 26 25 23 22 20 19 17 16 15 14 13 12 11 11 11 11 11 11 10 9 9 9 8 7 6 6 6 8 8 9 9 7 5 3 1 1 2 3 1 2
17 23 27 27 26 24 23 22 20 19 17 16 16 15 13 12 12 11 11 11 10 10 9 11 10 9 8 7 7 7 8 10 10 10 8 6 3 1 2 3 3 2 1
18 23 26 27 26 26 25 24 22 21 20 18 17 16 14 14 13 12 12 12 11 10 10 12 11 10 10 8 8 8 9 11 13 11 9 6 3 3 2 5 5 5 3
19 23 27 28 28 27 26 25 24 23 21 20 19 17 17 15 15 14 13 12 12 11 11 12 11 10 10 9 9 9 9 11 12 13 12 8 6 4 5 7 8 7 6
20 23 26 28 29 28 27 27 26 25 25 23 22 20 19 17 15 15 14 14 13 12 12 12 10 10 10 10 9 10 11 11 12 12 10 8 7 9 9 11 10 9 7
18 21 23 25 28 29 30 29 29 29 27 25 24 22 20 19 18 17 16 15 14 13 13 12 11 11 10 10 10 11 11 11 12 12 10 9 9 10 10 10 6 5 9
21 22 23 23 24 28 30 31 31 31 30 28 26 24 22 21 19 17 16 16 15 14 13 13 12 11 11 10 9 11 11 12 11 10 9 7 7 5 4 4 7 9 11
23 24 25 24 25 27 30 32 33 33 32 31 28 26 25 23 21 19 18 17 16 14 14 14 13 13 12 12 10 11 11 11 10 8 7 6 7 8 4 5 7 11 10
22 24 24 24 26 27 29 31 33 34 34 33 31 30 28 26 24 22 21 19 18 17 16 15 14 13 13 13 12 12 11 10 9 7 6 8 12 11 9 9 5 9 10
22 24 24 25 26 28 29 31 32 33 34 34 34 31 31 28 26 25 24 22 21 20 19 18 18 16 15 15 14 13 12 11 10 8 9 12 17 15 12 8 9 7 11
27 27 26 27 26 26 28 30 31 31 32 35 37 33 32 31 28 28 27 25 23 22 22 21 20 20 18 17 17 17 16 14 11 10 11 13 16 15 12 9 7 3 4
23 23 25 26 28 27 26 27 30 31 31 33 36 36 33 33 32 31 31 28 27 26 26 25 24 23 22 21 20 19 18 16 14 13 13 14 14 15 15 11 3 4 4
9 11 13 17 20 23 27 28 30 33 33 34 33 34 35 34 35 33 33 31 30 30 30 30 28 25 23 24 24 23 21 18 16 16 15 15 16 15 15 11 7 6 6
10 5 6 11 14 17 24 29 31 34 35 36 36 35 34 36 37 36 36 34 34 34 33 30 29 29 29 29 27 25 23 21 19 18 17 17 16 16 14 12 9 8 7
20 18 14 12 11 13 18 23 27 31 32 34 36 38 38 37 37 37 39 39 39 37 36 34 34 34 33 33 31 24 13 17 20 19 18 18 17 15 13 12 10 8 7
22 22 21 19 18 17 12 16 24 27 30 31 34 34 35 39 40 38 40 42 41 41 40 39 39 41 40 39 38 23 13 12 20 23 22 20 17 16 14 13 11 9 7
23 21 20 21 21 20 18 10 14 21 27 30 31 31 31 32 37 42 41 44 43 43 44 44 43 43 43 42 41 36 22 17 13 14 26 25 22 18 16 15 13 10 8
19 20 19 19 19 18 16 12 14 20 25 29 29 32 30 27 29 34 42 43 44 45 46 44 44 46 47 45 47 44 34 21 19 15 19 32 28 25 22 18 14 12 10
18 18 19 19 18 16 15 15 16 17 22 25 28 33 35 33 32 32 33 42 46 47 46 45 44 45 48 48 46 47 47 40 28 20 12 25 33 29 25 22 19 17 12
Wind_Direction
179 182 180 177 177 180 179 180 178 176 174 171 170 168 168 171 171 171 168 166 165 161 158 158 163 168 169 164 157 147 134 122 115 104 98 93 94 93 84 77 72 68 63
181 183 180 180 180 182 180 178 176 173 172 170 168 170 171 172 173 171 168 167 163 160 157 157 164 167 166 161 155 148 139 134 128 119 97 92 92 90 85 80 73 71 66
183 179 178 182 181 182 180 178 175 173 173 173 171 173 174 173 171 169 169 165 162 161 157 160 167 170 168 164 158 151 152 143 133 127 112 102 89 88 87 81 75 72 70
182 178 179 183 182 182 183 180 177 177 176 176 175 177 176 174 171 170 168 167 165 164 160 162 173 181 176 172 163 157 161 153 141 140 137 103 89 79 84 84 78 74 71
179 183 183 185 185 185 186 185 183 183 183 182 180 182 180 177 175 174 171 168 169 172 172 169 182 188 181 177 169 163 165 164 158 151 160 119 107 93 82 84 85 76 69
180 187 187 188 189 189 190 191 190 188 188 188 189 189 186 183 182 179 179 176 173 167 162 170 195 199 191 187 180 176 177 177 170 171 173 180 140 95 73 74 82 83 72
182 189 189 191 194 196 197 197 198 197 196 195 198 197 195 194 193 190 191 189 185 188 186 189 207 207 202 201 192 187 190 189 181 177 180 177 165 109 62 55 60 75 65
193 193 195 197 199 202 203 202 203 203 203 202 205 206 206 206 205 204 205 202 204 204 194 201 217 223 221 218 206 191 192 197 187 177 182 188 189 213 40 45 27 64 94
201 203 202 201 203 207 208 208 207 208 209 208 211 213 213 214 216 217 219 217 214 216 214 220 227 232 236 233 221 205 194 196 197 188 195 190 198 247 97 34 346 322 209
205 209 212 211 209 208 209 211 213 214 214 215 219 218 221 221 224 223 223 222 224 223 224 233 232 235 238 235 228 215 198 195 199 197 193 192 191 202 318 332 324 321 260
206 210 213 214 217 218 217 217 216 219 219 221 223 223 225 227 226 222 223 224 226 227 231 237 236 236 234 226 217 210 200 195 196 196 206 203 202 247 281 289 290 292 249
213 212 214 219 224 225 225 223 223 223 223 225 226 227 229 228 224 225 227 228 226 225 229 234 233 234 230 226 216 206 202 197 195 201 215 229 248 275 283 279 272 261 235
225 224 227 227 228 229 229 228 226 227 227 228 230 230 233 228 227 229 230 232 230 229 227 230 231 233 233 232 225 215 205 198 194 197 209 230 255 268 270 273 271 134 158
228 230 231 232 233 232 232 231 232 232 231 232 232 232 234 232 233 237 237 236 235 233 234 231 231 231 230 223 220 214 203 198 199 207 223 241 251 236 206 189 149 131 159
236 233 233 234 234 232 232 231 232 234 235 237 237 236 236 236 238 240 240 240 239 235 236 237 233 229 224 215 209 205 206 206 214 219 228 218 189 184 215 138 135 152 162
248 244 243 241 239 237 237 237 236 236 238 240 240 242 239 237 238 238 237 237 236 233 230 232 232 223 213 210 208 206 206 210 209 205 196 176 159 182 190 174 179 159 172
250 254 255 252 243 240 240 244 244 244 244 243 244 246 239 237 239 238 237 233 233 234 229 224 220 217 210 208 209 210 208 207 204 197 185 166 177 187 201 228 239 239 191
267 264 265 265 264 254 245 244 246 247 248 249 250 255 244 241 239 239 237 235 232 227 225 223 220 216 213 214 214 211 207 203 201 192 188 186 186 196 202 218 235 203 156
262 266 267 267 267 265 260 253 248 250 250 252 255 259 255 249 245 240 238 235 231 225 222 222 222 221 216 210 209 208 205 203 200 196 195 198 204 205 214 230 283 251 240
231 248 262 269 269 268 265 261 255 250 251 253 256 256 256 250 249 246 242 236 232 228 224 219 220 219 218 211 202 199 199 200 200 200 200 203 206 215 229 237 241 218 216
64 38 325 295 285 269 261 259 258 256 256 254 254 255 255 252 248 245 244 242 237 232 229 226 220 215 205 205 199 190 192 197 201 202 201 203 207 213 221 223 210 198 205
57 53 44 23 349 303 272 276 272 270 268 267 264 259 256 255 251 246 243 240 239 235 230 227 225 215 213 209 198 184 177 198 201 202 203 205 205 207 210 213 213 210 207
44 41 35 28 23 10 322 263 270 272 271 269 271 274 265 257 256 251 246 242 240 238 235 232 228 226 219 207 208 198 173 198 190 199 203 206 210 210 209 212 215 216 222
37 32 28 23 17 14 11 344 288 284 286 292 288 287 287 279 265 253 248 245 239 238 238 235 233 230 227 221 208 210 212 206 180 184 201 206 206 210 212 211 214 218 227
30 23 19 16 8 360 355 340 303 296 288 286 288 290 282 282 280 270 252 245 241 238 238 237 234 228 228 229 222 215 215 213 204 180 191 200 204 206 209 214 219 226 229
15 7 1 355 349 340 332 322 306 287 288 285 284 281 282 281 278 273 266 253 243 240 238 236 236 234 232 230 231 228 222 215 210 201 180 198 202 203 208 212 218 223 225
Height
1503 1506 1510 1513 1516 1520 1522 1525 1528 1530 1532 1534 1535 1536 1538 1539 1540 1541 1542 1544 1545 1547 1548 1549 1549 1551 1551 1552 1554 1554 1554 1555 1556 1556 1556 1556 1556 1555 1555 1555 1554 1553 1552
1502 1505 1509 1513 1517 1520 1523 1525 1527 1530 1532 1534 1535 1537 1539 1540 1541 1542 1542 1544 1545 1547 1549 1550 1550 1551 1551 1552 1554 1554 1555 1556 1556 1557 1557 1557 1557 1556 1556 1556 1555 1554 1553
1503 1505 1509 1513 1516 1520 1524 1526 1527 1529 1532 1535 1536 1538 1539 1540 1542 1543 1544 1544 1545 1547 1548 1550 1550 1550 1551 1553 1554 1555 1556 1556 1557 1558 1558 1559 1559 1558 1557 1557 1556 1555 1555
1503 1507 1510 1514 1517 1520 1523 1525 1528 1530 1533 1535 1537 1538 1539 1540 1541 1543 1544 1545 1546 1547 1548 1550 1550 1550 1552 1553 1554 1555 1556 1557 1558 1558 1559 1560 1560 1559 1558 1558 1558 1557 1556
1505 1509 1512 1515 1517 1520 1523 1525 1527 1530 1532 1535 1537 1538 1539 1541 1542 1543 1544 1545 1546 1547 1549 1550 1550 1550 1552 1552 1554 1555 1556 1557 1558 1559 1560 1561 1561 1560 1560 1559 1559 1559 1558
1505 1509 1513 1516 1518 1521 1524 1527 1529 1529 1531 1535 1537 1538 1539 1541 1542 1543 1544 1544 1546 1547 1548 1550 1550 1550 1551 1552 1554 1555 1555 1556 1558 1559 1560 1561 1561 1561 1561 1560 1560 1559 1559
1506 1509 1512 1516 1519 1521 1523 1526 1528 1530 1531 1533 1536 1537 1539 1541 1542 1543 1544 1544 1545 1546 1547 1548 1549 1550 1551 1552 1553 1554 1555 1556 1557 1559 1560 1561 1561 1562 1561 1561 1561 1560 1560
1507 1509 1512 1515 1518 1521 1524 1525 1528 1529 1530 1532 1535 1538 1539 1541 1542 1544 1545 1545 1546 1546 1547 1547 1547 1550 1550 1551 1552 1553 1554 1556 1557 1559 1560 1560 1560 1561 1561 1560 1561 1560 1560
1507 1510 1512 1515 1517 1520 1523 1525 1527 1529 1530 1532 1535 1537 1539 1540 1542 1544 1545 1546 1546 1547 1547 1546 1547 1549 1549 1550 1551 1552 1553 1555 1556 1558 1559 1559 1560 1560 1561 1560 1560 1560 1560
1506 1508 1511 1514 1517 1519 1521 1524 1526 1527 1528 1531 1534 1535 1538 1539 1541 1543 1544 1545 1545 1547 1547 1546 1546 1547 1548 1549 1550 1551 1552 1553 1555 1556 1557 1558 1559 1559 1560 1560 1560 1560 1560
1503 1505 1508 1511 1514 1517 1519 1522 1524 1525 1527 1529 1532 1534 1536 1537 1539 1540 1542 1543 1544 1545 1546 1546 1546 1547 1548 1548 1548 1549 1551 1552 1554 1555 1555 1556 1557 1557 1557 1558 1558 1559 1559
1502 1504 1507 1509 1512 1515 1517 1519 1522 1524 1525 1527 1529 1531 1533 1535 1537 1538 1540 1541 1541 1543 1544 1544 1545 1547 1548 1548 1548 1549 1549 1550 1552 1553 1554 1555 1556 1556 1555 1555 1555 1556 1557
1500 1501 1503 1505 1509 1512 1514 1516 1518 1520 1523 1525 1527 1529 1530 1532 1534 1535 1537 1539 1540 1541 1541 1542 1544 1546 1547 1548 1549 1549 1550 1552 1552 1553 1553 1554 1555 1553 1552 1552 1552 1553 1555
1496 1498 1499 1501 1503 1507 1509 1512 1514 1517 1519 1521 1524 1526 1528 1530 1532 1533 1535 1536 1538 1540 1541 1541 1542 1543 1545 1547 1549 1550 1551 1552 1553 1553 1554 1555 1554 1553 1552 1551 1551 1553 1554
1493 1494 1496 1499 1500 1502 1504 1507 1509 1512 1515 1517 1519 1521 1524 1526 1528 1530 1532 1534 1536 1538 1539 1541 1541 1542 1543 1545 1547 1549 1550 1551 1552 1553 1553 1553 1554 1554 1553 1552 1551 1552 1554
1489 1492 1494 1496 1498 1501 1502 1503 1506 1509 1511 1513 1515 1516 1518 1521 1523 1525 1526 1529 1531 1533 1535 1537 1539 1541 1542 1543 1545 1546 1548 1549 1550 1551 1552 1552 1554 1554 1553 1552 1552 1552 1553
1486 1487 1489 1491 1493 1496 1499 1502 1505 1507 1509 1510 1511 1513 1515 1517 1519 1521 1522 1523 1526 1529 1531 1532 1534 1537 1539 1541 1543 1544 1546 1547 1548 1549 1550 1552 1553 1553 1553 1553 1552 1552 1552
1483 1485 1487 1488 1489 1490 1492 1495 1498 1500 1503 1506 1507 1509 1511 1513 1515 1517 1518 1520 1521 1523 1526 1528 1529 1531 1535 1538 1539 1541 1542 1544 1545 1547 1548 1549 1550 1551 1552 1551 1550 1552 1551
1477 1480 1482 1483 1483 1485 1487 1489 1491 1494 1496 1499 1501 1504 1508 1510 1512 1512 1513 1514 1516 1517 1518 1521 1524 1527 1529 1532 1535 1538 1540 1542 1542 1543 1545 1546 1547 1548 1549 1549 1550 1550 1549
1472 1475 1477 1479 1480 1481 1482 1483 1486 1487 1489 1490 1493 1496 1498 1502 1507 1510 1511 1511 1512 1513 1514 1514 1517 1521 1526 1527 1529 1532 1536 1538 1540 1541 1542 1543 1544 1546 1546 1547 1548 1548 1548
1471 1472 1473 1474 1476 1477 1477 1476 1478 1480 1482 1484 1485 1488 1491 1494 1498 1502 1506 1509 1510 1509 1510 1514 1514 1516 1519 1522 1526 1530 1532 1534 1536 1538 1539 1541 1542 1542 1543 1544 1545 1545 1546
1473 1473 1473 1473 1473 1473 1474 1474 1474 1474 1475 1478 1480 1482 1484 1487 1489 1493 1496 1498 1502 1504 1506 1508 1510 1512 1513 1515 1519 1525 1531 1534 1534 1536 1538 1539 1539 1540 1540 1542 1543 1544 1544
1473 1473 1472 1472 1471 1470 1469 1472 1471 1471 1471 1472 1472 1474 1476 1479 1481 1484 1486 1488 1493 1496 1499 1502 1503 1505 1506 1509 1512 1514 1521 1523 1527 1530 1532 1536 1539 1538 1537 1539 1540 1541 1542
1472 1473 1472 1471 1471 1469 1469 1470 1470 1471 1470 1469 1469 1469 1469 1471 1471 1472 1477 1480 1482 1486 1489 1492 1495 1499 1502 1503 1506 1509 1510 1510 1518 1525 1526 1528 1530 1535 1536 1536 1536 1537 1539
1472 1472 1471 1470 1471 1470 1468 1467 1468 1467 1466 1465 1463 1462 1462 1462 1463 1465 1467 1470 1473 1476 1479 1484 1487 1490 1493 1498 1498 1501 1505 1508 1509 1511 1516 1519 1523 1526 1529 1533 1534 1535 1534
1472 1472 1470 1468 1467 1467 1466 1465 1462 1461 1460 1457 1456 1456 1455 1455 1455 1457 1459 1460 1463 1467 1470 1473 1478 1483 1486 1489 1492 1494 1496 1498 1501 1507 1510 1514 1515 1519 1525 1526 1529 1529 1530